Location: Borkenes
(68.7830°N, 16.1830°E)
Time: 16:31:42
(UTC+01:00)

Vanguard 2 - All Passes

Search period start: 11 December 2019 00:00
Search period end: 21 December 2019 00:00
Orbit: 553 x 2938 km, 32.9° (Epoch: 10 December)

Date Brightness Start Highest point End Pass type
(mag) Time Alt. Az. Time Alt. Az. Time Alt. Az.
11 Dec - 03:05:23 10° SSW 03:10:42 12° S 03:15:58 10° SSE visible
11 Dec - 05:15:21 10° SSW 05:17:20 10° SSW 05:19:18 10° SSW visible
12 Dec - 03:21:52 10° SSW 03:27:23 12° S 03:32:53 10° SSE visible
13 Dec - 01:34:16 10° S 01:37:24 11° SSE 01:40:34 10° SSE visible
13 Dec - 03:38:51 10° SSW 03:44:04 12° S 03:49:17 10° S visible
14 Dec - 01:49:40 10° S 01:54:03 11° SSE 01:58:32 10° SSE visible
14 Dec - 03:56:29 10° SSW 04:00:44 11° SSW 04:05:01 10° S visible
15 Dec - 02:05:56 10° S 02:10:43 12° S 02:15:40 10° SSE visible
15 Dec - 04:15:34 10° SSW 04:17:23 10° SSW 04:19:13 10° SSW visible
16 Dec - 02:22:46 10° SSW 02:27:24 12° S 02:32:13 10° SSE visible
17 Dec - 02:40:16 10° SSW 02:44:07 11° S 02:48:06 10° S visible
18 Dec - 00:52:57 10° S 00:54:14 10° SSE 00:55:33 10° SSE visible
18 Dec - 02:59:10 10° SSW 03:00:49 10° SSW 03:02:30 10° S visible
19 Dec - 01:09:29 10° S 01:10:56 10° S 01:12:27 10° SSE visible
